Wind_Speed
37 36 35 34 33 32 31 31 31 30 29 28 28 27 27 26 25 25 24 23 22 21 20 20 20 19 18 17 16 15 14 14 13 12 11 11 11 10 10 9 9 9 8
39 39 38 37 36 34 33 32 32 32 31 30 30 30 29 29 28 27 26 25 24 23 22 22 22 21 20 20 19 18 17 16 15 14 14 13 12 12 12 12 11 10 10
42 41 41 40 39 37 36 35 34 33 33 33 32 31 31 31 30 29 28 27 27 25 25 24 24 24 23 22 21 20 19 18 17 17 16 15 15 14 13 13 13 13 13
44 43 43 42 42 40 39 38 37 36 35 35 34 34 33 33 32 31 31 30 29 28 27 26 25 25 25 24 23 22 21 20 19 19 18 17 16 16 15 15 15 15 15
46 46 45 44 44 43 42 41 39 38 37 37 36 35 34 34 34 33 32 32 31 30 29 28 27 27 27 26 25 24 23 22 21 21 20 20 19 18 18 17 17 17 17
47 48 47 46 46 44 43 42 41 40 38 38 37 37 36 36 36 35 34 33 32 31 30 29 28 28 28 27 26 26 25 24 23 22 22 22 21 20 20 19 19 19 18
48 49 49 48 47 46 44 43 43 41 40 39 39 38 38 37 37 36 35 34 33 32 31 31 30 29 29 29 28 28 27 26 25 24 23 24 23 23 22 21 20 20 20
49 49 49 48 48 48 47 45 44 43 42 41 40 40 40 39 38 38 37 36 35 34 33 32 32 31 31 30 30 30 29 28 27 26 26 25 25 24 24 23 22 21 21
49 49 49 49 49 48 48 47 46 45 44 43 42 42 41 41 39 39 38 38 37 37 36 35 33 33 32 32 32 32 31 31 30 29 28 27 27 26 25 25 24 24 23
49 50 50 50 50 50 49 48 48 48 46 45 45 44 44 43 42 40 39 39 39 38 38 37 36 35 34 34 33 33 33 33 32 31 31 30 29 28 27 26 26 25 25
49 50 50 51 51 50 50 50 49 49 48 47 46 46 45 45 44 43 42 41 41 39 39 39 39 38 37 37 36 35 34 34 34 33 32 31 30 29 28 27 27 27 26
50 51 51 52 52 52 51 51 50 49 50 49 49 48 47 46 45 44 43 43 42 41 41 40 40 40 39 38 38 37 36 35 35 34 33 32 31 30 29 29 28 28 27
50 52 52 53 53 53 52 52 52 51 51 51 50 50 48 47 47 45 44 44 43 42 42 41 41 41 41 40 39 39 38 37 36 36 35 34 33 32 32 31 30 30 29
51 51 52 53 53 53 53 52 52 51 51 52 51 50 49 48 49 47 46 45 45 44 44 44 43 43 43 42 41 41 40 39 39 38 37 36 35 34 34 34 33 32 32
50 51 52 54 54 54 55 54 53 52 52 52 52 51 50 49 50 49 47 47 46 46 45 45 45 44 45 44 43 43 42 41 41 40 40 38 37 36 36 36 35 34 34
50 51 51 52 54 55 56 55 54 53 53 53 54 53 52 51 50 51 50 49 49 48 47 46 47 47 46 46 45 45 44 43 43 42 41 41 40 38 38 38 37 37 37
50 51 52 52 52 54 55 55 55 54 54 53 54 54 53 52 51 52 52 51 51 50 50 48 48 49 49 49 48 47 46 46 45 45 45 43 42 41 41 40 40 40 39
51 51 52 53 53 54 55 56 55 55 54 54 54 54 52 51 50 51 52 53 52 52 51 50 49 50 50 50 50 50 49 48 47 47 47 46 45 44 44 43 43 43 42
52 53 53 54 54 55 56 56 56 55 55 55 56 55 55 53 53 52 51 52 52 51 50 49 48 48 49 49 50 51 51 50 49 49 49 49 48 48 47 45 45 45 44
51 53 53 54 55 55 56 56 56 56 56 56 56 56 55 54 54 55 54 52 50 50 50 49 49 48 48 49 50 50 51 51 50 50 50 50 49 49 49 48 48 47 47
51 52 52 52 53 55 54 55 56 58 57 57 56 56 55 55 55 55 54 53 51 50 50 50 50 49 49 49 50 50 51 51 51 50 51 51 51 51 51 50 50 50 49
49 51 51 51 52 53 53 55 56 57 57 57 55 55 55 56 55 54 54 53 53 52 51 51 51 50 50 50 50 50 50 51 51 51 52 52 52 52 51 51 51 50 50
47 48 50 51 52 52 53 55 56 57 57 57 56 55 54 54 55 55 56 55 54 53 53 52 52 51 51 52 52 51 51 52 52 53 54 53 53 53 53 53 53 52 51
46 47 50 51 52 53 53 54 56 57 57 57 57 56 55 54 55 55 56 56 55 54 54 54 53 54 54 53 53 53 52 52 53 54 55 54 54 53 53 53 54 54 53
45 46 48 50 52 52 52 53 54 55 57 57 57 56 56 56 55 55 55 56 56 55 56 56 56 56 57 56 56 55 55 55 55 56 56 56 55 54 54 53 54 54 54
44 44 45 47 48 49 50 51 53 54 56 56 56 56 56 56 57 57 57 56 56 56 57 57 57 57 58 59 58 58 57 57 57 56 57 56 57 57 56 55 55 55 55
Wind_Direction
239 238 237 238 239 239 238 239 240 239 239 240 240 240 241 242 242 242 242 242 243 244 244 244 243 243 243 243 245 249 252 256 259 261 264 268 272 275 280 283 286 289 298
238 238 238 238 239 240 240 240 241 241 239 241 241 241 241 242 242 242 243 242 243 244 245 245 243 243 244 244 246 248 251 254 257 258 261 265 268 271 275 276 280 284 290
239 239 238 238 239 240 241 241 242 241 241 241 241 241 241 241 242 242 242 243 243 244 245 246 244 243 244 246 247 249 250 252 255 257 260 262 265 268 271 273 276 281 286
238 238 238 239 239 240 240 241 242 242 241 242 243 242 242 242 241 242 243 244 244 245 246 245 244 244 244 245 246 248 249 251 254 256 258 261 263 265 269 272 275 279 282
239 238 239 239 239 240 240 241 243 242 241 242 243 242 243 243 242 241 242 244 245 246 245 245 244 244 244 245 245 246 248 250 252 255 257 260 263 265 268 271 273 276 279
240 239 238 238 239 240 240 241 242 241 241 242 242 242 243 244 243 243 243 244 246 246 244 244 243 243 244 244 245 246 248 249 251 254 257 259 261 264 267 270 272 274 277
239 238 237 237 237 239 239 240 241 242 242 242 243 243 243 243 243 243 244 245 245 245 244 243 242 243 243 244 245 246 247 249 251 253 256 258 260 263 266 269 271 273 275
238 237 237 237 237 238 238 239 240 242 241 241 242 242 242 243 243 244 244 245 245 244 244 243 243 244 244 244 245 246 247 248 250 252 254 256 259 261 264 267 270 272 275
238 238 238 238 238 238 239 240 240 240 240 240 241 243 243 242 244 245 246 245 244 243 244 243 243 244 244 244 245 246 247 247 249 250 253 256 257 259 262 265 268 271 274
239 239 239 239 239 239 240 241 241 241 241 240 242 243 244 244 244 245 246 246 244 244 243 243 243 244 244 244 245 247 248 249 249 249 252 254 256 258 261 264 267 269 272
240 239 239 239 239 239 240 241 241 240 240 241 242 243 244 244 245 245 245 246 245 244 244 244 244 244 245 245 246 247 248 249 249 249 251 253 255 258 260 262 265 268 270
242 240 240 240 240 240 240 240 241 241 240 241 242 242 243 244 245 245 245 244 244 244 245 244 244 244 245 246 246 247 248 249 248 249 250 252 254 257 259 262 265 267 269
244 243 241 241 241 241 241 241 242 241 241 241 241 242 242 243 243 244 245 245 244 244 245 244 245 244 244 245 246 246 247 248 248 248 249 251 253 255 258 261 264 267 269
245 245 243 243 243 242 241 242 242 242 241 241 241 241 241 242 242 243 244 244 244 244 245 245 245 245 245 246 246 247 246 247 247 248 249 250 253 255 258 260 263 266 269
245 245 245 244 243 242 242 242 243 242 242 241 239 240 241 242 242 243 243 243 244 245 244 245 245 246 246 246 246 246 246 246 247 248 249 251 253 255 258 260 263 267 269
245 245 244 244 243 243 243 243 243 242 242 241 240 240 241 242 243 243 243 244 245 245 244 245 246 246 246 246 246 246 246 247 248 249 250 252 253 256 258 261 263 266 268
245 245 244 244 243 242 242 243 242 241 240 240 240 240 241 242 243 243 242 243 244 245 245 245 247 247 247 247 245 246 246 247 248 249 249 251 253 255 259 260 263 265 267
245 245 245 245 245 244 243 243 243 242 241 240 240 240 242 242 241 242 243 243 245 247 248 247 248 248 248 246 245 246 246 248 249 249 250 251 253 255 258 260 263 265 267
246 246 246 245 246 246 245 245 244 243 242 241 240 241 242 242 241 242 244 245 247 247 248 248 248 248 248 247 247 246 247 248 249 250 251 251 254 256 258 260 262 264 266
248 248 247 247 246 246 246 245 244 243 242 241 241 241 242 244 243 244 245 246 248 248 248 248 248 248 249 248 248 247 248 248 249 250 251 252 255 256 257 259 261 262 264
248 248 248 247 246 245 245 245 245 243 242 241 241 242 243 244 244 244 245 246 247 248 248 247 247 248 249 248 248 248 249 250 250 251 252 253 255 256 257 258 260 262 263
248 248 247 247 247 246 245 245 245 243 242 242 242 242 243 244 243 244 245 246 246 247 247 247 246 247 248 248 248 249 250 250 251 252 252 253 255 257 258 259 260 262 263
249 249 249 248 248 247 246 246 245 244 243 242 242 243 244 243 243 244 244 245 247 248 247 247 247 246 248 248 249 249 251 252 252 252 253 254 255 257 258 259 260 261 263
251 251 250 249 248 248 247 246 245 245 243 242 242 243 243 243 244 245 245 245 245 246 247 248 248 247 247 248 249 250 251 253 253 254 254 254 255 257 259 260 261 262 263
251 252 251 249 248 248 248 247 247 246 243 242 242 242 243 243 244 244 245 246 245 246 247 247 248 248 247 248 250 251 253 253 254 254 255 256 256 257 259 260 261 262 263
251 252 252 249 249 249 248 247 247 245 243 242 242 243 244 245 244 244 245 245 245 246 246 248 248 249 249 250 251 252 254 254 254 254 255 256 257 257 258 259 260 261 262
Height
5779 5782 5785 5789 5791 5794 5797 5799 5801 5804 5806 5808 5810 5812 5814 5816 5817 5819 5821 5822 5823 5824 5826 5827 5828 5829 5830 5831 5832 5832 5833 5833 5834 5834 5834 5834 5833 5833 5833 5832 5831 5831 5830
5769 5773 5777 5780 5783 5786 5789 5792 5794 5796 5799 5801 5803 5805 5808 5809 5811 5813 5815 5816 5818 5819 5821 5822 5823 5824 5825 5827 5828 5828 5829 5830 5830 5830 5830 5830 5830 5830 5830 5829 5829 5828 5827
5759 5764 5767 5771 5774 5777 5780 5783 5786 5788 5791 5794 5796 5798 5800 5803 5804 5806 5808 5810 5812 5813 5815 5816 5817 5819 5820 5822 5823 5824 5825 5825 5826 5826 5827 5827 5827 5827 5826 5826 5826 5825 5825
5749 5753 5757 5761 5765 5768 5771 5774 5777 5780 5783 5785 5788 5790 5793 5795 5797 5799 5801 5803 5805 5807 5808 5810 5811 5813 5815 5816 5818 5819 5820 5821 5821 5822 5822 5823 5823 5823 5823 5822 5822 5822 5821
5737 5742 5746 5750 5754 5757 5761 5764 5767 5770 5773 5776 5779 5782 5784 5786 5789 5791 5793 5795 5797 5799 5801 5803 5804 5806 5808 5810 5812 5813 5814 5816 5816 5817 5818 5818 5818 5819 5819 5818 5818 5818 5817
5726 5730 5735 5739 5743 5747 5750 5754 5758 5761 5764 5767 5770 5773 5775 5778 5780 5782 5785 5787 5789 5791 5793 5795 5797 5799 5801 5804 5805 5807 5809 5810 5811 5812 5813 5813 5814 5814 5814 5814 5814 5813 5813
5714 5718 5723 5728 5732 5736 5740 5744 5748 5751 5754 5757 5761 5764 5766 5768 5771 5773 5776 5778 5781 5783 5785 5787 5789 5792 5794 5796 5798 5800 5802 5804 5805 5806 5807 5808 5808 5808 5809 5809 5808 5808 5808
5701 5706 5711 5716 5721 5725 5729 5733 5737 5740 5744 5747 5751 5754 5757 5760 5762 5764 5766 5769 5772 5774 5777 5779 5782 5784 5786 5789 5791 5793 5795 5797 5799 5800 5801 5801 5802 5803 5803 5803 5803 5803 5803
5690 5695 5699 5704 5709 5713 5717 5722 5726 5729 5733 5737 5740 5744 5747 5750 5754 5756 5757 5760 5763 5765 5768 5771 5773 5776 5778 5781 5783 5786 5788 5790 5792 5793 5794 5794 5796 5796 5797 5797 5797 5797 5797
5679 5683 5688 5692 5697 5701 5705 5709 5714 5718 5722 5726 5729 5733 5736 5740 5744 5747 5749 5751 5753 5756 5759 5762 5764 5767 5769 5772 5775 5778 5780 5782 5784 5786 5787 5788 5789 5789 5790 5791 5791 5791 5791
5667 5671 5676 5680 5685 5689 5693 5697 5701 5706 5710 5714 5718 5722 5725 5729 5732 5736 5739 5742 5744 5746 5749 5752 5755 5758 5760 5763 5766 5769 5772 5774 5776 5778 5779 5780 5781 5782 5783 5784 5784 5784 5784
5655 5659 5663 5667 5672 5677 5681 5685 5689 5693 5698 5702 5706 5710 5714 5718 5722 5725 5728 5731 5734 5737 5739 5742 5745 5748 5751 5754 5757 5760 5763 5765 5767 5770 5771 5772 5774 5774 5775 5776 5777 5777 5777
5643 5647 5650 5655 5659 5663 5668 5672 5676 5680 5685 5690 5694 5698 5703 5707 5710 5714 5717 5720 5724 5727 5729 5732 5734 5737 5741 5744 5747 5750 5753 5756 5758 5761 5763 5764 5766 5767 5768 5768 5769 5770 5770
5630 5633 5637 5641 5646 5650 5654 5659 5663 5667 5672 5677 5681 5686 5691 5695 5698 5702 5706 5709 5712 5716 5719 5722 5724 5727 5730 5733 5737 5740 5743 5746 5749 5751 5754 5755 5757 5758 5759 5760 5760 5761 5762
5617 5621 5624 5628 5632 5637 5641 5645 5650 5654 5659 5663 5668 5673 5678 5683 5686 5690 5694 5697 5701 5705 5708 5711 5714 5716 5719 5722 5726 5729 5733 5736 5739 5741 5744 5746 5748 5749 5750 5751 5752 5752 5753
5604 5607 5611 5615 5619 5623 5627 5632 5636 5641 5646 5650 5655 5660 5666 5670 5674 5678 5682 5685 5689 5693 5697 5700 5703 5705 5707 5711 5714 5718 5722 5725 5728 5731 5733 5736 5738 5739 5740 5741 5742 5743 5743
5591 5594 5598 5602 5606 5610 5614 5618 5623 5628 5633 5637 5642 5648 5653 5657 5662 5666 5670 5673 5676 5680 5684 5688 5690 5693 5696 5699 5703 5706 5710 5713 5716 5719 5722 5725 5727 5728 5730 5731 5732 5733 5733
5578 5581 5585 5588 5592 5596 5600 5605 5610 5614 5619 5624 5629 5635 5640 5644 5649 5653 5657 5660 5664 5667 5671 5675 5678 5680 5683 5686 5690 5694 5698 5701 5705 5708 5710 5713 5715 5717 5719 5720 5721 5722 5722
5565 5568 5571 5575 5579 5582 5586 5591 5596 5601 5606 5611 5616 5621 5626 5631 5635 5640 5643 5647 5650 5654 5657 5661 5664 5667 5670 5674 5677 5681 5685 5689 5693 5695 5698 5701 5703 5705 5707 5708 5709 5710 5710
5552 5555 5558 5561 5565 5569 5573 5577 5582 5587 5592 5597 5602 5607 5612 5617 5622 5626 5630 5634 5637 5641 5644 5648 5651 5654 5658 5661 5664 5668 5672 5676 5680 5683 5685 5688 5690 5692 5694 5696 5697 5698 5699
5539 5542 5545 5548 5551 5555 5559 5563 5568 5572 5578 5583 5589 5593 5598 5603 5608 5612 5617 5621 5624 5628 5631 5635 5638 5642 5645 5648 5652 5656 5659 5663 5666 5669 5672 5675 5677 5680 5681 5683 5684 5685 5686
5525 5528 5531 5534 5537 5541 5545 5549 5553 5558 5563 5569 5574 5579 5584 5589 5594 5599 5603 5607 5611 5615 5619 5622 5626 5629 5633 5636 5639 5642 5646 5649 5653 5657 5658 5661 5664 5666 5668 5670 5671 5672 5673
5512 5514 5517 5520 5524 5527 5531 5535 5539 5544 5549 5555 5560 5565 5570 5575 5580 5585 5589 5593 5597 5601 5605 5609 5613 5616 5620 5623 5626 5629 5632 5636 5639 5642 5644 5648 5650 5652 5654 5656 5657 5658 5659
5499 5502 5504 5507 5510 5514 5517 5521 5525 5530 5535 5540 5545 5551 5556 5561 5566 5570 5575 5579 5583 5587 5592 5596 5600 5603 5606 5608 5612 5616 5619 5622 5625 5627 5630 5634 5636 5638 5640 5642 5643 5644 5646
5487 5489 5490 5493 5496 5500 5503 5507 5511 5515 5520 5526 5531 5536 5541 5547 5552 5556 5561 5566 5570 5573 5576 5580 5584 5588 5591 5594 5598 5601 5604 5607 5610 5613 5615 5618 5621 5623 5625 5627 5628 5630 5631
5474 5476 5477 5479 5482 5486 5490 5493 5497 5501 5507 5513 5517 5523 5528 5533 5537 5541 5546 5550 5555 5559 5562 5566 5569 5573 5576 5580 5583 5586 5589 5592 5595 5598 5601 5603 5606 5608 5611 5613 5614 5615 5616